{"data":{"norad_id":53896,"intl_designator":"2022-119L","name":"STARLINK-5037","alt_names":[],"object_type":"PAYLOAD","status":"ACTIVE","operator":null,"country":"US","launch_date":"2022-09-24","launch_site_code":"AFETR","launch_vehicle":null,"mission":null,"orbit_class":"UNKNOWN","rcs_meters":null,"size_class":null,"mass_kg":null,"dimensions":null,"purposes":["comms"],"wikipedia_slug":null,"has_3d_model":false,"image_url":null,"decayed_at":null,"tle_current":{"epoch":"2026-09-20T10:25:34.485024Z","epoch_age_seconds":89782,"freshness":"FRESH","line1":"1 53896U 22119L   26263.43442691  .00002629  00000+0  86279-4 0  9992","line2":"2 53896  53.1619 164.3671 0001165  87.2170 272.8967 15.35389012221153","mean_motion":15.35389012,"eccentricity":0.0001165,"inclination_deg":53.1619,"raan_deg":164.3671,"arg_perigee_deg":87.217,"mean_anomaly_deg":272.8967,"bstar":8.6279e-5,"rev_number":22115,"period_min":93.787306587811,"perigee_km":458.9686505302,"apogee_km":460.56188175821,"semimajor_km":6837.9022661442,"source":"CELESTRAK","updated_at":"2026-09-21T09:00:33.030028Z"}}}